#timestamp,LO_Frequency,Hit,StdDev 
1542819615.6,286046998.8,N
1542819635.4,286046998.8,N
1542819655.2,286046997.0,N
1542819675.1,286046997.4,N
1542819676.0,286046997.4,N
1542819695.8,286046996.1,N
1542819715.7,286046993.8,N
1542819735.5,286046994.0,N
1542819755.3,286046995.6,N
1542819775.2,286046995.2,N
1542819795.0,286046997.6,N
1542819795.9,286046997.6,N
1542819815.8,286046997.0,N
1542819835.6,286046999.6,N
1542819855.4,286047000.3,N
1542819875.3,286047000.2,N
1542819895.1,286047001.8,N
1542819896.0,286047001.8,N
1542819915.8,286047003.1,N
1542819935.7,286047007.1,N
1542819955.5,286047009.2,N
1542819975.3,286047006.6,N
1542819995.2,286047005.4,N
1542820015.0,286047005.3,N
1542820015.9,286047005.3,N
1542820035.8,286047003.3,N
1542820055.6,286047000.3,N
1542820075.4,286047000.2,N
1542820095.3,286047000.5,N
1542820115.1,286046998.1,N
1542820135.9,286047002.8,N
1542820155.7,286047000.1,N
1542820175.5,286046999.7,N
1542820195.4,286047002.7,N
1542820215.2,286047001.8,N
1542820235.0,286047002.1,N
1542820235.9,286047002.1,N
1542820255.8,286047002.5,N
1542820275.6,286047000.3,N
1542820295.5,286046998.8,N
1542820315.3,286046997.5,N
1542820335.1,286046997.1,N
1542820355.9,286046999.3,N
1542820375.7,286046998.8,N
1542820395.5,286046999.0,N
1542820415.4,286047000.4,N
1542820435.2,286046998.6,N
1542820455.0,286047000.1,N
1542820456.0,286047000.1,N
1542820475.8,286047000.3,N
1542820495.6,286046999.9,N
1542820515.5,286047000.0,N
1542820535.3,286047000.6,N
1542820555.1,286047000.5,N
1542820575.9,286047000.3,N
1542820595.7,286047000.2,N
1542820615.5,286047003.3,N
1542820635.4,286047003.7,N
1542820655.2,286047004.7,N
1542820675.1,286047008.2,Y
1542820676.0,286047008.2,P
1542820695.8,286047005.9,N
1542820715.6,286047004.1,N
1542820735.5,286046998.1,N
1542820755.3,286047001.1,N
1542820775.1,286047001.0,N
1542820795.9,286047000.3,N
1542820815.7,286047002.4,N
1542820835.6,286047000.4,N
1542820855.4,286046999.0,N
1542820875.2,286046995.0,N
1542820895.1,286046996.4,N
1542820896.0,286046996.4,N
1542820915.8,286046993.6,N
1542820935.7,286046997.6,N
1542820955.5,286046999.4,N
1542820975.3,286047000.9,N
1542820995.2,286046998.8,N
1542821015.9,286047000.8,N
1542821035.7,286046999.9,N
1542821055.6,286047000.3,N
1542821075.4,286047000.4,N
1542821095.2,286046999.9,N
1542821115.1,286047000.1,N
1542821116.0,286047000.1,N
1542821135.8,286047002.0,N
1542821155.7,286046999.9,N
1542821175.5,286047004.0,N
1542821195.3,286047002.1,N
1542821215.2,286047001.7,N
1542821235.0,286047002.1,N
1542821235.9,286047002.1,N
1542821255.8,286047000.4,N
1542821275.6,286047000.1,N
1542821295.4,286047005.4,N
1542821315.3,286047004.7,N
1542821335.1,286047004.2,N
1542821336.0,286047004.2,N
1542821355.8,286047001.7,N
1542821375.7,286047002.8,N
1542821395.5,286047001.6,N
1542821415.4,286047000.0,N
1542821435.2,286047000.8,N
1542821455.0,286046997.2,N
1542821455.9,286046997.2,N
1542821475.8,286046999.5,N
1542821495.6,286046998.2,N
1542821515.4,286046998.6,N
1542821535.3,286046999.1,N
1542821555.1,286046996.9,N
1542821575.9,286046998.1,N
1542821595.7,286047004.4,N
1542821615.5,286047004.1,N
1542821635.4,286047003.9,N
1542821655.2,286047002.0,N
1542821675.0,286047005.5,N
1542821675.9,286047005.5,N
1542821695.8,286047005.1,N
1542821715.6,286047003.1,N
1542821735.4,286047004.2,N
1542821755.3,286047001.5,N
1542821775.1,286047001.6,N
1542821795.9,286047000.4,N
1542821815.7,286046998.4,N
1542821835.5,286046999.3,N
1542821855.4,286047011.9,Y
1542821875.2,286046998.4,P
1542821895.0,286047000.6,N
1542821896.0,286047000.6,N
1542821915.8,286047003.3,N
1542821935.6,286047002.6,N
1542821955.5,286047002.7,N
1542821975.3,286046998.1,N
1542821995.1,286046998.1,N
1542822015.9,286047000.5,N
1542822035.7,286047001.6,N
1542822055.6,286047000.4,N
1542822075.4,286046998.1,N
1542822095.2,286046998.2,N
1542822115.1,286047001.2,N
1542822116.0,286047001.2,N
1542822135.8,286047001.2,N
1542822155.6,286047001.1,N
1542822175.5,286046999.6,N
1542822195.3,286046997.4,N
1542822215.2,286046997.6,N
1542822235.9,286046996.3,N
1542822255.7,286046995.7,N
1542822275.6,286046993.5,Y
1542822295.4,286046993.6,P
1542822315.3,286046994.3,N
1542822335.1,286046994.5,N
1542822336.0,286046994.5,N
1542822355.8,286046992.2,Y
1542822375.7,286046997.1,P
1542822395.5,286046999.5,N
1542822415.3,286046997.0,N
1542822435.2,286046998.7,N
1542822455.0,286046999.4,N
1542822455.9,286046999.4,N
1542822475.8,286047000.2,N
1542822495.6,286047004.0,N
1542822515.4,286047001.6,N
1542822535.3,286047002.2,N
1542822555.1,286047001.9,N
1542822575.9,286046998.2,N
1542822595.7,286046999.3,N
1542822615.5,286046995.3,N
1542822635.4,286046996.3,N
1542822655.2,286046996.2,N
1542822675.0,286046992.0,Y
1542822675.9,286046992.0,P
1542822695.8,286046991.9,N
1542822715.6,286046992.1,N
1542822735.5,286046991.8,N
1542822755.3,286046998.0,N
1542822775.1,286046997.6,N
1542822795.9,286046996.0,N
1542822815.7,286046994.3,N
1542822835.5,286046994.4,N
1542822855.4,286046996.0,N
1542822875.2,286046996.3,N
1542822895.0,286046995.5,N
1542822896.0,286046995.5,N
1542822915.8,286046995.3,N
1542822935.6,286046993.3,Y
1542822955.5,286047001.1,P
1542822975.3,286046995.0,N
1542822995.1,286046992.0,N
1542823015.9,286046989.6,Y
1542823035.7,286046994.8,P
1542823055.6,286046992.1,P
1542823075.4,286046992.3,P
1542823095.2,286046992.4,Y
1542823115.1,286047002.1,P
1542823116.0,286047002.1,N
1542823135.8,286047002.1,N
1542823155.7,286046998.7,N
1542823175.5,286047001.2,N
1542823195.3,286047000.9,N
